• In Netherlands
  • List of Countries
  • For 7 days
  • Water Temperature
  • Satellite Maps
  • Weather Map
  • Weather Widgets
  • user-avatar
    Login

    Hourly Weather Zaranj

    Today, 28 February, Tuesday

    Time Temperature Precipitation Wind Pressure Humidity
    00:00 +13°C° 0 mm 5 mps 722 mmHg 46%
    01:00 +13°C° 0 mm 6 mps 722 mmHg 47%
    02:00 +11°C° 0 mm 6 mps 722 mmHg 49%
    03:00 +12°C° 0 mm 5 mps 722 mmHg 50%
    04:00 +12°C° 0 mm 5 mps 721 mmHg 52%
    05:00 +10°C° 0 mm 5 mps 722 mmHg 53%
    06:00 +11°C° 0 mm 4 mps 722 mmHg 54%
    07:00 +11°C° 0 mm 4 mps 722 mmHg 55%
    08:00 +12°C° 0 mm 4 mps 723 mmHg 50%
    09:00 +13°C° 0 mm 4 mps 723 mmHg 45%
    10:00 +15°C° 0 mm 4 mps 724 mmHg 39%
    11:00 +17°C° 0 mm 4 mps 723 mmHg 36%
    12:00 +18°C° 0 mm 3 mps 723 mmHg 32%
    13:00 +19°C° 0 mm 3 mps 723 mmHg 29%
    14:00 +20°C° 0 mm 3 mps 723 mmHg 29%
    15:00 +20°C° 0 mm 2 mps 722 mmHg 28%
    16:00 +20°C° 0 mm 2 mps 722 mmHg 27%
    17:00 +20°C° 0 mm 2 mps 722 mmHg 29%
    18:00 +19°C° 0 mm 2 mps 722 mmHg 31%
    19:00 +18°C° 0 mm 2 mps 722 mmHg 32%
    20:00 +18°C° 0 mm 2 mps 722 mmHg 33%
    21:00 +17°C° 0 mm 2 mps 723 mmHg 35%
    22:00 +17°C° 0 mm 2 mps 723 mmHg 36%
    23:00 +16°C° 0 mm 2 mps 723 mmHg 37%

    Tomorrow, 1 March, Wednesday

    Time Temperature Precipitation Wind Pressure Humidity
    00:00 +16°C° 0 mm 2 mps 722 mmHg 38%
    01:00 +14°C° 0 mm 3 mps 722 mmHg 40%
    02:00 +14°C° 0 mm 3 mps 722 mmHg 41%
    03:00 +14°C° 0 mm 3 mps 722 mmHg 42%
    04:00 +13°C° 0 mm 3 mps 722 mmHg 43%
    05:00 +13°C° 0 mm 3 mps 722 mmHg 43%
    06:00 +13°C° 0 mm 3 mps 722 mmHg 43%
    07:00 +13°C° 0 mm 3 mps 723 mmHg 43%
    08:00 +14°C° 0 mm 3 mps 723 mmHg 39%
    09:00 +17°C° 0 mm 3 mps 724 mmHg 34%
    10:00 +18°C° 0 mm 3 mps 724 mmHg 29%
    11:00 +19°C° 0 mm 3 mps 724 mmHg 28%
    12:00 +20°C° 0 mm 3 mps 723 mmHg 26%
    13:00 +21°C° 0 mm 3 mps 723 mmHg 24%
    14:00 +21°C° 0 mm 3 mps 722 mmHg 23%
    15:00 +22°C° 0 mm 3 mps 722 mmHg 22%
    16:00 +22°C° 0 mm 3 mps 722 mmHg 21%
    17:00 +21°C° 0 mm 3 mps 722 mmHg 23%
    18:00 +20°C° 0 mm 3 mps 722 mmHg 24%
    19:00 +20°C° 0 mm 3 mps 722 mmHg 25%
    20:00 +19°C° 0 mm 3 mps 722 mmHg 26%
    21:00 +18°C° 0 mm 4 mps 722 mmHg 28%
    22:00 +17°C° 0 mm 5 mps 723 mmHg 29%
    23:00 +16°C° 0 mm 6 mps 723 mmHg 32%

    Day after tomorrow, 2 March, Thursday

    Time Temperature Precipitation Wind Pressure Humidity
    00:00 +16°C° 0 mm 6 mps 723 mmHg 35%
    01:00 +15°C° 0 mm 7 mps 723 mmHg 38%
    02:00 +15°C° 0 mm 7 mps 722 mmHg 38%
    03:00 +14°C° 0 mm 7 mps 722 mmHg 38%
    04:00 +13°C° 0 mm 8 mps 722 mmHg 39%
    05:00 +12°C° 0 mm 7 mps 722 mmHg 40%
    06:00 +12°C° 0 mm 7 mps 723 mmHg 40%
    07:00 +12°C° 0 mm 7 mps 723 mmHg 41%
    08:00 +13°C° 0 mm 8 mps 723 mmHg 37%
    09:00 +15°C° 0 mm 8 mps 724 mmHg 33%
    10:00 +16°C° 0 mm 8 mps 724 mmHg 29%
    11:00 +17°C° 0 mm 8 mps 723 mmHg 26%
    12:00 +18°C° 0 mm 7 mps 723 mmHg 23%
    13:00 +20°C° 0 mm 7 mps 722 mmHg 21%
    14:00 +21°C° 0 mm 6 mps 722 mmHg 20%
    15:00 +21°C° 0 mm 5 mps 721 mmHg 19%
    16:00 +21°C° 0 mm 5 mps 721 mmHg 18%
    17:00 +20°C° 0 mm 4 mps 721 mmHg 20%
    18:00 +19°C° 0 mm 3 mps 720 mmHg 22%
    19:00 +18°C° 0 mm 3 mps 720 mmHg 23%
    20:00 +18°C° 0 mm 3 mps 721 mmHg 25%
    21:00 +17°C° 0 mm 3 mps 721 mmHg 27%
    22:00 +16°C° 0 mm 3 mps 721 mmHg 28%
    23:00 +16°C° 0 mm 3 mps 720 mmHg 30%

    3 March, Friday

    Time Temperature Precipitation Wind Pressure Humidity
    00:00 +14°C° 0 mm 3 mps 720 mmHg 31%
    01:00 +15°C° 0 mm 2 mps 720 mmHg 32%
    02:00 +15°C° 0 mm 2 mps 719 mmHg 33%
    03:00 +14°C° 0 mm 2 mps 719 mmHg 33%
    04:00 +14°C° 0 mm 2 mps 718 mmHg 34%
    05:00 +14°C° 0 mm 2 mps 719 mmHg 34%
    06:00 +14°C° 0 mm 2 mps 719 mmHg 35%
    07:00 +14°C° 0 mm 2 mps 719 mmHg 35%
    08:00 +15°C° 0 mm 2 mps 720 mmHg 32%
    09:00 +16°C° 0 mm 2 mps 720 mmHg 28%
    10:00 +17°C° 0 mm 2 mps 720 mmHg 25%
    11:00 +18°C° 0 mm 2 mps 720 mmHg 23%
    12:00 +19°C° 0 mm 2 mps 719 mmHg 20%
    13:00 +20°C° 0 mm 2 mps 719 mmHg 18%
    14:00 +21°C° 0 mm 2 mps 718 mmHg 17%
    15:00 +21°C° 0 mm 2 mps 718 mmHg 17%
    16:00 +21°C° 0 mm 2 mps 718 mmHg 17%
    17:00 +21°C° 0 mm 2 mps 718 mmHg 18%
    18:00 +20°C° 0 mm 2 mps 718 mmHg 19%
    19:00 +20°C° 0 mm 1 mps 718 mmHg 21%
    20:00 +19°C° 0 mm 2 mps 719 mmHg 22%
    21:00 +18°C° 0 mm 2 mps 719 mmHg 23%
    22:00 +18°C° 0 mm 2 mps 719 mmHg 24%
    23:00 +17°C° 0 mm 2 mps 719 mmHg 26%

    4 March, Saturday

    Time Temperature Precipitation Wind Pressure Humidity
    00:00 +17°C° 0 mm 3 mps 718 mmHg 28%
    01:00 +16°C° 0 mm 3 mps 718 mmHg 30%
    02:00 +16°C° 0 mm 3 mps 718 mmHg 32%
    03:00 +14°C° 0 mm 3 mps 718 mmHg 34%
    04:00 +14°C° 0 mm 4 mps 717 mmHg 36%
    05:00 +13°C° 0 mm 3 mps 718 mmHg 37%
    06:00 +13°C° 0 mm 3 mps 718 mmHg 37%
    07:00 +13°C° 0 mm 3 mps 719 mmHg 38%
    08:00 +14°C° 0 mm 3 mps 719 mmHg 34%
    09:00 +17°C° 0 mm 3 mps 719 mmHg 30%
    10:00 +18°C° 0 mm 3 mps 720 mmHg 26%
    11:00 +19°C° 0 mm 3 mps 719 mmHg 24%
    12:00 +20°C° 0 mm 2 mps 719 mmHg 22%
    13:00 +21°C° 0 mm 2 mps 718 mmHg 20%
    14:00 +23°C° 0 mm 1 mps 718 mmHg 20%
    15:00 +23°C° 0 mm 1 mps 718 mmHg 19%
    16:00 +23°C° 0 mm 1 mps 717 mmHg 19%
    17:00 +23°C° 0 mm 1 mps 718 mmHg 20%
    18:00 +22°C° 0 mm 1 mps 718 mmHg 21%
    19:00 +21°C° 0 mm 1 mps 718 mmHg 23%
    20:00 +20°C° 0 mm 2 mps 718 mmHg 24%
    21:00 +19°C° 0 mm 2 mps 718 mmHg 25%
    22:00 +19°C° 0 mm 3 mps 719 mmHg 26%
    23:00 +18°C° 0 mm 3 mps 718 mmHg 27%

    5 March, Sunday

    Time Temperature Precipitation Wind Pressure Humidity
    00:00 +18°C° 0 mm 4 mps 718 mmHg 29%
    01:00 +17°C° 0 mm 4 mps 718 mmHg 31%
    02:00 +15°C° 0 mm 5 mps 718 mmHg 32%
    03:00 +15°C° 0 mm 5 mps 718 mmHg 34%
    04:00 +14°C° 0 mm 5 mps 718 mmHg 35%
    05:00 +14°C° 0 mm 5 mps 718 mmHg 36%
    06:00 +14°C° 0 mm 5 mps 718 mmHg 36%
    07:00 +13°C° 0 mm 5 mps 719 mmHg 36%
    08:00 +14°C° 0 mm 6 mps 719 mmHg 33%
    09:00 +16°C° 0 mm 6 mps 720 mmHg 29%
    10:00 +17°C° 0 mm 6 mps 720 mmHg 26%
    11:00 +19°C° 0 mm 6 mps 720 mmHg 24%
    12:00 +20°C° 0 mm 6 mps 719 mmHg 22%
    13:00 +22°C° 0 mm 6 mps 719 mmHg 20%
    14:00 +22°C° 0 mm 6 mps 718 mmHg 20%
    15:00 +22°C° 0 mm 7 mps 718 mmHg 19%
    16:00 +22°C° 0 mm 7 mps 718 mmHg 18%
    17:00 +21°C° 0 mm 8 mps 718 mmHg 19%
    18:00 +20°C° 0 mm 8 mps 718 mmHg 19%
    19:00 +18°C° 0 mm 9 mps 719 mmHg 20%
    20:00 +17°C° 0 mm 9 mps 719 mmHg 20%
    21:00 +16°C° 0 mm 10 mps 719 mmHg 21%
    22:00 +14°C° 0 mm 11 mps 719 mmHg 21%
    23:00 +13°C° 0 mm 11 mps 719 mmHg 23%
    Show more